Preview of NWS' New Version of Forecast
This preview is not operational and should not be used for support decisions.

Regional Weather Roundup (RWR)

Issued by National Weather Service (NWS)

                            
000
ASUS44 KMEG 240610
RWRTN 
TENNESSEE HOURLY STATE WEATHER ROUNDUP
NATIONAL WEATHER SERVICE MEMPHIS TN
100 AM CDT SUN MAR 24 2019

TNZ002-004-019-021-049-052-054-088>092-240700-
WEST TENNESSEE
  
CITY           SKY/WX    TMP DP  RH WIND       PRES   REMARKS
MEMPHIS INTL   CLOUDY    58  35  42 CALM      30.16F                  
NWS MEMPHIS      N/A     54 N/A N/A MISG        N/A                   
JACKSON        FAIR      51  38  60 E3        30.20F                  
DYERSBURG      FAIR      55  38  52 E5        30.19F                  
SOMERVILLE     CLOUDY    57  34  41 CALM      30.16F                  
COVINGTON      CLOUDY    52  43  71 CALM      30.17F                  
UNION CITY     CLEAR     54  32  43 E3        30.18F                  
BOLIVAR        CLOUDY    55  34  44 CALM      30.18F                  
PARIS          PTCLDY    48  36  61 CALM      30.21F                  
HUNTINGDON     CLOUDY    52  34  50 CALM      30.20F                  
LEXINGTON      CLOUDY    48  32  53 CALM      30.20F                  
SELMER         PTCLDY    48  37  66 S5        30.19F                  
SAVANNAH       CLEAR     45  41  87 CALM      30.20S                  
$$

TNZ008-025-027-028-033-062-065-066-240700-
NORTH MIDDLE TENNESSEE
  
CITY           SKY/WX    TMP DP  RH WIND       PRES   REMARKS
NASHVILLE      MOCLDY    49  28  44 CALM      30.23S                  
DICKSON        CLEAR     50  21  32 CALM      30.22R                  
CLARKSVILLE    FAIR      46  27  47 CALM      30.24R                  
LEBANON        PTCLDY    43  36  75 CALM      30.22R                  
SMYRNA         FAIR      42  34  73 CALM      30.25R                  
MURFREESBORO   CLEAR     45  32  61 CALM      30.22R                  
COOKEVILLE     PTCLDY    34  30  86 CALM      30.22S                  
GALLATIN       PTCLDY    45  28  53 CALM      30.26S                  
CROSSVILLE     FAIR      42  15  33 S3        30.24F                  
ROCKWOOD       CLEAR     43  12  28 CALM      30.24F                  
$$

TNZ061-075-076-078-094-096-097-240700-
SOUTH MIDDLE TENNESSEE
  
CITY           SKY/WX    TMP DP  RH WIND       PRES   REMARKS
LAWRENCEBURG   MOCLDY    43  30  61 CALM      30.21F                  
LEWISBURG      CLEAR     34  32  93 CALM      30.22S                  
FAYETTEVILLE   CLEAR     50  25  37 CALM      30.21S                  
TULLAHOMA      CLEAR     41  28  60 CALM      30.22R                  
WINCHESTER     PTCLDY    43  32  65 CALM      30.22S                  
MCMINNVILLE    CLEAR     39  32  75 CALM      30.22S                  
COLUMBIA       CLEAR     43  36  75 CALM      30.21F                  
SHELBYVILLE    CLEAR     43  28  56 CALM      30.23R                  
$$

TNZ017-018-042-046-047-240700-
NORTHEAST TENNESSEE
  
CITY           SKY/WX    TMP DP  RH WIND       PRES   REMARKS
TRI CITIES     CLOUDY    33  26  75 CALM      30.28S                  
ELIZABETHTON   FAIR      36  23  60 CALM      30.28S                  
GREENEVILLE    CLEAR     45  21  39 CALM      30.25S                  
$$

TNZ012-013-036-069-073-074-240700-
CENTRAL EAST TENNESSEE
  
CITY           SKY/WX    TMP DP  RH WIND       PRES   REMARKS
KNOXVILLE      FAIR      44  25  47 CALM      30.24F                  
OAK RIDGE      FAIR      39  29  67 CALM      30.27F                  
DOWNTOWN KNOXV CLEAR     39  34  81 CALM      30.27S                  
GATLINBURG     CLEAR     37  27  65 CALM      30.26S                  
MORRISTOWN     MOCLDY    41  28  60 CALM      30.24F                  
JACKSBORO      CLEAR     36  28  75 CALM      30.29S                  
$$

TNZ083-085-099-240700-
SOUTHEAST TENNESSEE
  
CITY           SKY/WX    TMP DP  RH WIND       PRES   REMARKS
CHATTANOOGA    FAIR      44  34  67 CALM      30.25S                  
DAYTON         CLEAR     37  34  87 CALM      30.24F FOG              
$$

SKY/WX REPORTED AS FAIR MEANS FEW OR NO CLOUDS BELOW
12 THOUSAND FEET.